EAI7S EIDW-EGHI

Flight info

Callsign EAI7S
Flight time 0h 58m
Altitude 33000
Route PESIT4E PESIT DCT BAKUR DCT GUBJE DCT DAVAZ DCT AVZAC DCT ICOSA DCT RUHUN DCT HAWFA L607 NUCHU L18 NUBRI BUGUP1S
Aircraft A320/M-SDE3FGHIRWY/LB1

Departure

Time 2026-05-08 12:30
Airport Dublin Airport (EIDW)

Arrival

Time 2026-05-08 13:29
Airport Southampton Airport (EGHI)
Time Latitude Longitude Altitude Speed Heading
2026-05-08 11:57 53.43061 -6.23673 211 ft 0 kts 185°
2026-05-08 12:17 53.43066 -6.23672 211 ft 4 kts 185°
2026-05-08 12:17 53.43093 -6.23668 216 ft 3 kts 185°
2026-05-08 12:18 53.43113 -6.23662 211 ft 4 kts 221°
2026-05-08 12:18 53.43121 -6.23628 211 ft 3 kts 284°
2026-05-08 12:18 53.43116 -6.23596 211 ft 0 kts 284°
2026-05-08 12:21 53.43117 -6.23599 211 ft 2 kts 284°
2026-05-08 12:21 53.43128 -6.23673 211 ft 9 kts 284°
2026-05-08 12:21 53.43143 -6.23772 220 ft 8 kts 284°
2026-05-08 12:22 53.43146 -6.23880 213 ft 9 kts 249°
2026-05-08 12:22 53.43124 -6.23998 211 ft 11 kts 277°
2026-05-08 12:22 53.43143 -6.24123 219 ft 13 kts 285°
2026-05-08 12:22 53.43169 -6.24271 211 ft 13 kts 291°
2026-05-08 12:23 53.43198 -6.24399 213 ft 11 kts 320°
2026-05-08 12:23 53.43278 -6.24406 211 ft 14 kts
2026-05-08 12:23 53.43346 -6.24475 211 ft 12 kts 287°
2026-05-08 12:23 53.43354 -6.24606 211 ft 11 kts 275°
2026-05-08 12:24 53.43362 -6.24748 213 ft 15 kts 275°
2026-05-08 12:24 53.43374 -6.24965 214 ft 22 kts 276°
2026-05-08 12:24 53.43387 -6.25193 211 ft 19 kts 275°
2026-05-08 12:24 53.43398 -6.25400 211 ft 17 kts 275°
2026-05-08 12:25 53.43408 -6.25589 211 ft 16 kts 275°
2026-05-08 12:25 53.43385 -6.25768 216 ft 16 kts 247°
2026-05-08 12:25 53.43341 -6.25937 215 ft 17 kts 246°
2026-05-08 12:25 53.43298 -6.26116 216 ft 16 kts 256°
2026-05-08 12:26 53.43353 -6.26251 211 ft 14 kts 321°
2026-05-08 12:26 53.43434 -6.26362 211 ft 19 kts 320°
2026-05-08 12:26 53.43461 -6.26555 216 ft 17 kts 275°
2026-05-08 12:26 53.43472 -6.26744 211 ft 16 kts 276°
2026-05-08 12:27 53.43482 -6.26919 211 ft 15 kts 275°
2026-05-08 12:27 53.43492 -6.27108 211 ft 18 kts 275°
2026-05-08 12:27 53.43503 -6.27311 219 ft 17 kts 275°
2026-05-08 12:27 53.43513 -6.27495 211 ft 15 kts 275°
2026-05-08 12:28 53.43522 -6.27662 211 ft 14 kts 275°
2026-05-08 12:28 53.43530 -6.27818 211 ft 15 kts 275°
2026-05-08 12:28 53.43540 -6.27991 211 ft 14 kts 275°
2026-05-08 12:28 53.43587 -6.28106 213 ft 12 kts 349°
2026-05-08 12:29 53.43666 -6.28097 215 ft 11 kts
2026-05-08 12:29 53.43715 -6.28046 214 ft 9 kts 83°
2026-05-08 12:29 53.43713 -6.28013 211 ft 0 kts 96°
2026-05-08 12:29 53.43704 -6.27850 215 ft 46 kts 95°
2026-05-08 12:30 53.43653 -6.26916 216 ft 112 kts 95°
2026-05-08 12:30 53.43570 -6.25301 252 ft 160 kts 94°
2026-05-08 12:30 53.43479 -6.23454 946 ft 157 kts 90°
2026-05-08 12:30 53.43513 -6.21637 1695 ft 161 kts 85°
2026-05-08 12:31 53.43616 -6.19644 2120 ft 182 kts 84°
2026-05-08 12:31 53.43745 -6.17430 2552 ft 201 kts 84°
2026-05-08 12:31 53.43874 -6.15023 3121 ft 211 kts 85°
2026-05-08 12:31 53.43998 -6.12515 3805 ft 218 kts 86°
2026-05-08 12:32 53.44123 -6.09967 4629 ft 224 kts 88°
2026-05-08 12:32 53.43843 -6.07298 5051 ft 246 kts 118°
2026-05-08 12:32 53.42660 -6.05165 5625 ft 259 kts 153°
2026-05-08 12:32 53.40916 -6.04339 6484 ft 264 kts 171°
2026-05-08 12:33 53.39094 -6.03832 7388 ft 267 kts 171°
2026-05-08 12:33 53.37254 -6.03308 8296 ft 270 kts 171°
2026-05-08 12:33 53.35389 -6.02768 9212 ft 273 kts 171°
2026-05-08 12:33 53.33507 -6.02218 10103 ft 276 kts 171°
2026-05-08 12:34 53.31574 -6.01654 10521 ft 297 kts 171°
2026-05-08 12:34 53.29464 -6.01043 10860 ft 317 kts 171°
2026-05-08 12:34 53.27258 -6.00408 11513 ft 325 kts 171°
2026-05-08 12:34 53.25011 -5.99760 12275 ft 330 kts 171°
2026-05-08 12:35 53.22734 -5.99104 13052 ft 334 kts 171°
2026-05-08 12:35 53.20430 -5.98438 13811 ft 339 kts 171°
2026-05-08 12:35 53.18098 -5.97764 14486 ft 342 kts 171°
2026-05-08 12:35 53.15738 -5.97085 15175 ft 345 kts 171°
2026-05-08 12:36 53.13360 -5.96400 15872 ft 348 kts 172°
2026-05-08 12:36 53.10964 -5.95712 16568 ft 351 kts 172°
2026-05-08 12:36 53.08548 -5.95019 17261 ft 354 kts 172°
2026-05-08 12:36 53.06106 -5.94323 17954 ft 356 kts 172°
2026-05-08 12:37 53.03655 -5.93624 18595 ft 359 kts 172°
2026-05-08 12:37 53.01186 -5.92919 19177 ft 362 kts 173°
2026-05-08 12:37 52.98695 -5.92210 19756 ft 365 kts 173°
2026-05-08 12:37 52.96181 -5.91496 20335 ft 368 kts 173°
2026-05-08 12:38 52.93641 -5.90778 20912 ft 371 kts 173°
2026-05-08 12:38 52.91088 -5.90056 21484 ft 374 kts 173°
2026-05-08 12:38 52.88510 -5.89325 22054 ft 377 kts 173°
2026-05-08 12:38 52.85915 -5.88585 22622 ft 381 kts 173°
2026-05-08 12:39 52.83297 -5.87836 23167 ft 384 kts 173°
2026-05-08 12:39 52.80652 -5.87082 23696 ft 387 kts 174°
2026-05-08 12:39 52.77987 -5.86326 24132 ft 390 kts 174°
2026-05-08 12:39 52.75310 -5.85571 24554 ft 392 kts 174°
2026-05-08 12:40 52.72602 -5.84809 24984 ft 395 kts 174°
2026-05-08 12:40 52.69882 -5.84043 25396 ft 397 kts 174°
2026-05-08 12:40 52.67143 -5.83272 25801 ft 400 kts 174°
2026-05-08 12:40 52.64397 -5.82502 26197 ft 402 kts 174°
2026-05-08 12:41 52.61634 -5.81730 26593 ft 404 kts 175°
2026-05-08 12:41 52.58851 -5.80954 26977 ft 407 kts 175°
2026-05-08 12:41 52.56053 -5.80172 27365 ft 409 kts 175°
2026-05-08 12:41 52.53244 -5.79386 27746 ft 411 kts 175°
2026-05-08 12:42 52.50409 -5.78594 28115 ft 413 kts 175°
2026-05-08 12:42 52.47570 -5.77800 28478 ft 416 kts 175°
2026-05-08 12:42 52.44717 -5.77003 28831 ft 418 kts 175°
2026-05-08 12:42 52.41840 -5.76199 29174 ft 420 kts 175°
2026-05-08 12:43 52.38970 -5.75219 29506 ft 426 kts 169°
2026-05-08 12:43 52.36106 -5.73838 29826 ft 428 kts 168°
2026-05-08 12:43 52.33282 -5.72464 30137 ft 431 kts 168°
2026-05-08 12:43 52.30397 -5.71058 30392 ft 433 kts 169°
2026-05-08 12:44 52.27510 -5.69658 30631 ft 435 kts 169°
2026-05-08 12:44 52.24599 -5.68237 30864 ft 438 kts 167°
2026-05-08 12:44 52.21741 -5.66423 31077 ft 443 kts 163°
2026-05-08 12:44 52.18884 -5.64494 31288 ft 446 kts 163°
2026-05-08 12:45 52.16016 -5.62552 31556 ft 446 kts 163°
2026-05-08 12:45 52.13152 -5.60613 31861 ft 446 kts 163°
2026-05-08 12:45 52.10285 -5.58675 32148 ft 446 kts 163°
2026-05-08 12:45 52.07416 -5.56741 32434 ft 446 kts 163°
2026-05-08 12:46 52.04543 -5.54812 32721 ft 447 kts 163°
2026-05-08 12:46 52.02642 -5.53526 32914 ft 447 kts 163°
2026-05-08 12:46 51.99781 -5.51523 33048 ft 447 kts 162°
2026-05-08 12:46 51.96967 -5.49487 33068 ft 439 kts 162°
2026-05-08 12:47 51.91549 -5.45012 33061 ft 443 kts 150°
2026-05-08 12:47 51.87110 -5.37920 33060 ft 457 kts 129°
2026-05-08 12:48 51.84138 -5.28726 33062 ft 464 kts 119°
2026-05-08 12:48 51.81400 -5.19273 33057 ft 464 kts 119°
2026-05-08 12:49 51.78655 -5.09823 33052 ft 465 kts 117°
2026-05-08 12:49 51.76867 -4.99719 33043 ft 471 kts 103°
2026-05-08 12:50 51.75655 -4.89313 33038 ft 472 kts 103°
2026-05-08 12:50 51.74428 -4.78910 33039 ft 472 kts 103°
2026-05-08 12:51 51.72554 -4.63389 33041 ft 471 kts 103°
2026-05-08 12:52 51.71285 -4.53017 33043 ft 471 kts 103°
2026-05-08 12:52 51.69371 -4.37478 33036 ft 471 kts 103°
2026-05-08 12:53 51.68087 -4.27108 33032 ft 471 kts 103°
2026-05-08 12:53 51.66794 -4.16767 33026 ft 471 kts 103°
2026-05-08 12:54 51.65491 -4.06423 33027 ft 471 kts 103°
2026-05-08 12:54 51.64178 -3.96092 33025 ft 471 kts 103°
2026-05-08 12:55 51.62866 -3.85838 33025 ft 471 kts 103°
2026-05-08 12:55 51.61540 -3.75523 33022 ft 471 kts 103°
2026-05-08 12:56 51.60191 -3.65217 33032 ft 471 kts 103°
2026-05-08 12:56 51.59176 -3.54826 33034 ft 472 kts 96°
2026-05-08 12:57 51.58593 -3.44322 33036 ft 472 kts 94°
2026-05-08 12:57 51.58761 -3.39058 33038 ft 471 kts 78°
2026-05-08 12:57 51.59562 -3.33942 32917 ft 473 kts 74°
2026-05-08 12:58 51.60426 -3.28850 32645 ft 472 kts 74°
2026-05-08 12:58 51.61303 -3.23744 32374 ft 472 kts 73°
2026-05-08 12:58 51.62181 -3.18650 32157 ft 472 kts 73°
2026-05-08 12:58 51.63054 -3.13574 31910 ft 472 kts 74°
2026-05-08 12:59 51.63930 -3.08459 31656 ft 472 kts 74°
2026-05-08 12:59 51.64794 -3.03359 31410 ft 472 kts 74°
2026-05-08 12:59 51.65650 -2.98262 31165 ft 472 kts 74°
2026-05-08 12:59 51.66506 -2.93156 30914 ft 472 kts 74°
2026-05-08 13:00 51.67358 -2.88063 30410 ft 470 kts 74°
2026-05-08 13:00 51.68204 -2.82980 29688 ft 468 kts 75°
2026-05-08 13:00 51.69037 -2.77953 29040 ft 463 kts 75°
2026-05-08 13:00 51.69862 -2.72965 28404 ft 459 kts 75°
2026-05-08 13:01 51.70681 -2.68011 27768 ft 454 kts 75°
2026-05-08 13:01 51.71489 -2.63111 27137 ft 451 kts 75°
2026-05-08 13:01 51.72289 -2.58250 26511 ft 447 kts 75°
2026-05-08 13:01 51.73079 -2.53417 25897 ft 444 kts 75°
2026-05-08 13:02 51.73863 -2.48613 25296 ft 440 kts 75°
2026-05-08 13:02 51.74639 -2.43869 24714 ft 436 kts 75°
2026-05-08 13:02 51.75400 -2.39217 24166 ft 432 kts 75°
2026-05-08 13:02 51.76159 -2.34559 23631 ft 428 kts 75°
2026-05-08 13:03 51.76909 -2.29936 23052 ft 423 kts 75°
2026-05-08 13:03 51.77645 -2.25370 22543 ft 417 kts 76°
2026-05-08 13:03 51.78366 -2.20866 22056 ft 412 kts 76°
2026-05-08 13:03 51.79080 -2.16402 21545 ft 408 kts 76°
2026-05-08 13:04 51.79789 -2.11980 21048 ft 405 kts 76°
2026-05-08 13:04 51.80490 -2.07599 20532 ft 402 kts 76°
2026-05-08 13:04 51.81186 -2.03233 20019 ft 399 kts 77°
2026-05-08 13:04 51.81875 -1.98903 19495 ft 397 kts 77°
2026-05-08 13:05 51.82559 -1.94596 18970 ft 395 kts 77°
2026-05-08 13:05 51.83239 -1.90293 18448 ft 394 kts 77°
2026-05-08 13:05 51.83914 -1.86006 17869 ft 392 kts 77°
2026-05-08 13:05 51.84579 -1.81761 17351 ft 388 kts 78°
2026-05-08 13:06 51.85238 -1.77545 16834 ft 385 kts 78°
2026-05-08 13:06 51.85889 -1.73363 16329 ft 382 kts 77°
2026-05-08 13:06 51.86419 -1.69188 15823 ft 377 kts 88°
2026-05-08 13:06 51.86234 -1.65022 15331 ft 369 kts 106°
2026-05-08 13:07 51.85284 -1.61227 14846 ft 361 kts 124°
2026-05-08 13:07 51.83714 -1.58128 14362 ft 354 kts 141°
2026-05-08 13:07 51.81711 -1.55887 13889 ft 348 kts 152°
2026-05-08 13:07 51.79638 -1.53900 13375 ft 345 kts 152°
2026-05-08 13:08 51.77586 -1.51927 12911 ft 341 kts 151°
2026-05-08 13:08 51.75553 -1.49975 12460 ft 337 kts 151°
2026-05-08 13:08 51.73555 -1.48059 12005 ft 333 kts 151°
2026-05-08 13:08 51.71566 -1.46156 11553 ft 329 kts 151°
2026-05-08 13:09 51.69590 -1.44314 11113 ft 325 kts 155°
2026-05-08 13:09 51.67549 -1.43007 10821 ft 315 kts 162°
2026-05-08 13:09 51.65493 -1.41810 10392 ft 313 kts 161°
2026-05-08 13:09 51.63464 -1.40612 9990 ft 310 kts 161°
2026-05-08 13:10 51.61482 -1.39436 9816 ft 298 kts 161°
2026-05-08 13:10 51.59563 -1.38296 9545 ft 287 kts 161°
2026-05-08 13:10 51.57725 -1.37209 9283 ft 279 kts 162°
2026-05-08 13:10 51.55912 -1.36145 9009 ft 276 kts 162°
2026-05-08 13:11 51.54119 -1.35093 8754 ft 273 kts 162°
2026-05-08 13:11 51.52340 -1.34051 8589 ft 272 kts 161°
2026-05-08 13:11 51.50558 -1.33008 8454 ft 272 kts 161°
2026-05-08 13:11 51.48784 -1.31968 8322 ft 271 kts 161°
2026-05-08 13:12 51.47019 -1.30936 8195 ft 271 kts 161°
2026-05-08 13:12 51.45407 -1.29999 8087 ft 270 kts 162°
2026-05-08 13:12 51.43643 -1.28973 8078 ft 270 kts 162°
2026-05-08 13:12 51.41881 -1.27946 8083 ft 270 kts 162°
2026-05-08 13:13 51.40104 -1.26908 8083 ft 270 kts 161°
2026-05-08 13:13 51.38338 -1.25878 8081 ft 270 kts 162°
2026-05-08 13:13 51.36573 -1.24850 8081 ft 271 kts 162°
2026-05-08 13:13 51.34796 -1.23842 8081 ft 270 kts 166°
2026-05-08 13:14 51.32956 -1.23347 8083 ft 269 kts 179°
2026-05-08 13:14 51.31086 -1.23444 8082 ft 268 kts 184°
2026-05-08 13:14 51.29229 -1.23601 8082 ft 268 kts 184°
2026-05-08 13:14 51.27417 -1.23747 8081 ft 252 kts 184°
2026-05-08 13:15 51.25724 -1.23880 8078 ft 235 kts 184°
2026-05-08 13:15 51.24133 -1.24005 8085 ft 226 kts 184°
2026-05-08 13:15 51.22568 -1.24132 8083 ft 224 kts 184°
2026-05-08 13:15 51.21069 -1.24252 8083 ft 224 kts 184°
2026-05-08 13:16 51.19503 -1.24451 8081 ft 224 kts 192°
2026-05-08 13:16 51.17997 -1.25069 8087 ft 224 kts 195°
2026-05-08 13:16 51.16494 -1.25711 8083 ft 223 kts 195°
2026-05-08 13:16 51.14992 -1.26347 8083 ft 224 kts 195°
2026-05-08 13:17 51.13721 -1.26882 8081 ft 224 kts 195°
2026-05-08 13:17 51.12234 -1.27511 8082 ft 224 kts 195°
2026-05-08 13:17 51.10727 -1.28144 8083 ft 224 kts 195°
2026-05-08 13:17 51.09219 -1.28775 8084 ft 224 kts 195°
2026-05-08 13:18 51.07708 -1.29412 8085 ft 225 kts 195°
2026-05-08 13:18 51.06199 -1.30046 8083 ft 224 kts 195°
2026-05-08 13:18 51.04696 -1.30673 7942 ft 222 kts 195°
2026-05-08 13:18 51.03202 -1.31296 7629 ft 222 kts 195°
2026-05-08 13:19 51.01714 -1.31916 7346 ft 221 kts 195°
2026-05-08 13:19 51.00234 -1.32532 7121 ft 219 kts 195°
2026-05-08 13:19 50.98760 -1.33146 7078 ft 219 kts 195°
2026-05-08 13:19 50.97298 -1.33756 7083 ft 220 kts 195°
2026-05-08 13:20 50.95794 -1.34377 7085 ft 220 kts 193°
2026-05-08 13:20 50.94299 -1.34396 7078 ft 222 kts 164°
2026-05-08 13:20 50.92926 -1.33244 7087 ft 226 kts 148°
2026-05-08 13:20 50.91710 -1.31658 7081 ft 229 kts 129°
2026-05-08 13:21 50.91111 -1.29334 6985 ft 232 kts 98°
2026-05-08 13:21 50.91377 -1.26820 6678 ft 237 kts 64°
2026-05-08 13:21 50.92372 -1.24724 6358 ft 239 kts 48°
2026-05-08 13:21 50.93520 -1.22859 6196 ft 233 kts 46°
2026-05-08 13:22 50.94649 -1.21086 6059 ft 225 kts 46°
2026-05-08 13:22 50.95745 -1.19385 5941 ft 216 kts 46°
2026-05-08 13:22 50.96791 -1.17762 5773 ft 206 kts 46°
2026-05-08 13:22 50.97819 -1.16181 5459 ft 205 kts 46°
2026-05-08 13:23 50.98993 -1.14936 5151 ft 206 kts 20°
2026-05-08 13:23 51.00380 -1.14370 4868 ft 205 kts 12°
2026-05-08 13:23 51.01776 -1.13945 4546 ft 204 kts 11°
2026-05-08 13:23 51.03176 -1.13544 4201 ft 205 kts 11°
2026-05-08 13:24 51.04584 -1.13299 4012 ft 202 kts 352°
2026-05-08 13:24 51.05834 -1.14188 3878 ft 198 kts 314°
2026-05-08 13:24 51.06610 -1.15970 3528 ft 197 kts 294°
2026-05-08 13:24 51.07193 -1.17938 3206 ft 196 kts 286°
2026-05-08 13:25 51.07224 -1.20015 2934 ft 186 kts 247°
2026-05-08 13:25 51.06696 -1.21876 2636 ft 185 kts 237°
2026-05-08 13:25 51.06081 -1.23665 2335 ft 184 kts 236°
2026-05-08 13:25 51.05455 -1.25432 2123 ft 181 kts 236°
2026-05-08 13:26 51.04851 -1.27132 1989 ft 172 kts 236°
2026-05-08 13:26 51.04267 -1.28754 1910 ft 167 kts 234°
2026-05-08 13:26 51.03511 -1.30029 1817 ft 151 kts 203°
2026-05-08 13:26 51.02560 -1.30492 1599 ft 139 kts 196°
2026-05-08 13:27 51.01689 -1.31101 1389 ft 135 kts 199°
2026-05-08 13:27 51.00841 -1.31716 1209 ft 134 kts 201°
2026-05-08 13:27 51.00004 -1.32346 1003 ft 133 kts 203°
2026-05-08 13:27 50.99201 -1.33078 884 ft 135 kts 207°
2026-05-08 13:28 50.98368 -1.33757 681 ft 134 kts 197°
2026-05-08 13:28 50.97503 -1.34300 433 ft 130 kts 195°
2026-05-08 13:28 50.96639 -1.34776 280 ft 134 kts 196°
2026-05-08 13:28 50.95776 -1.35268 66 ft 131 kts 196°
2026-05-08 13:29 50.95005 -1.35686 40 ft 98 kts 199°
2026-05-08 13:29 50.94662 -1.35881 40 ft 18 kts 199°
2026-05-08 13:29 50.94570 -1.35967 38 ft 15 kts 253°
2026-05-08 13:29 50.94597 -1.36100 39 ft 11 kts 309°
2026-05-08 13:30 50.94665 -1.36136 39 ft 13 kts 11°
2026-05-08 13:30 50.94751 -1.36091 37 ft 12 kts 19°
2026-05-08 13:30 50.94826 -1.36049 39 ft 11 kts 19°
2026-05-08 13:30 50.94872 -1.36031 39 ft 9 kts 356°
2026-05-08 13:31 50.94913 -1.36126 39 ft 7 kts 299°
2026-05-08 13:31 50.94940 -1.36135 39 ft 6 kts 11°
2026-05-08 13:31 50.94966 -1.36120 37 ft 3 kts 20°
2026-05-08 13:31 50.94970 -1.36118 38 ft 0 kts 20°